STARLINK-1732 (46584 NORAD) Tracking and Keplerian Element Data

This shows tracking and keplerian element data for the satellite.

Feedback or suggestion? Click here.




ElementValue
Catalog46584
NameSTARLINK-1732
Epoch Orbit873
Epoch Day333.00002315
Epoch Year2020
RAAN184.3787
Inclination53.0003
Eccentricity0.0001695
Argument of Perigee40.4516
Mean Anonmoly287.8132
Mean Motion15.62697026
Decay Rate0.00077645
L11 46584U 20070BE 20333.00002315 .00077645 00000-0 84753-3 0 9997
L22 46584 53.0003 184.3787 0001695 40.4516 287.8132 15.62697026 8732

Live tracking and technical data element details for STARLINK-1732 (NORAD 46584). STARLINK-1732 can be tracked NOW for your location showing map with azimuth and elevation plus other details from your city location.

Track the satellite on the map from your city or location and see movement details for azimuth, elevation, latitude, longitude, range, height, and movement on the map or in text.







IsCatalogInMostPopularTable: catalog: 46584, numindb: 12
Update: records affected: 1



GetName: 46584 STARLINK-1732

Hit Count: updated at: Sun, 29 Nov 2020 10:30:05 GMT